| time (UTC) | temp F | wind direction | speed MPH | gust MPH | rain 1hr in | rain 24hr in | rain mn in | humidity % | barometer mb |
| 20260902095744 | 81 | 169 | 2.0 | 0.0 | 0.00 | 0.00 | 0.01 | 71 | 1008.7 |
| 20260902095254 | 81 | 182 | 2.0 | 0.0 | 0.00 | 0.00 | 0.01 | 71 | 1008.7 |
| 20260902094749 | 81 | 131 | 2.0 | 0.0 | 0.00 | 0.00 | 0.01 | 70 | 1008.7 |
| 20260902093736 | 81 | 179 | 1.0 | 0.0 | 0.00 | 0.00 | 0.01 | 69 | 1008.7 |
| 20260902092752 | 81 | 186 | 1.0 | 0.0 | 0.00 | 0.00 | 0.01 | 68 | 1008.7 |
| 20260902092242 | 81 | 203 | 2.0 | 0.0 | 0.00 | 0.00 | 0.01 | 68 | 1008.7 |
| 20260902091750 | 82 | 223 | 2.0 | 0.0 | 0.00 | 0.00 | 0.01 | 68 | 1008.7 |
| 20260902091242 | 82 | 206 | 3.0 | 0.0 | 0.00 | 0.00 | 0.01 | 67 | 1008.5 |
| 20260902090737 | 82 | 166 | 4.0 | 0.0 | 0.00 | 0.00 | 0.01 | 66 | 1008.5 |
| 20260902090255 | 82 | 207 | 4.0 | 0.0 | 0.00 | 0.00 | 0.01 | 66 | 1008.5 |
| 20260902090139 | 82 | 172 | 4.0 | 0.0 | 0.00 | 0.00 | 0.01 | 66 | 1008.5 |
| 20260902085738 | 82 | 159 | 5.0 | 0.0 | 0.00 | 0.00 | 0.01 | 66 | 1008.6 |
| 20260902085247 | 82 | 183 | 5.0 | 0.0 | 0.00 | 0.00 | 0.01 | 65 | 1008.6 |
| 20260902084740 | 83 | 183 | 3.0 | 0.0 | 0.00 | 0.00 | 0.01 | 65 | 1008.6 |
| 20260902084247 | 83 | 148 | 1.0 | 0.0 | 0.00 | 0.00 | 0.01 | 65 | 1008.6 |
| 20260902083755 | 83 | 179 | 2.0 | 0.0 | 0.00 | 0.00 | 0.01 | 65 | 1008.6 |
| 20260902083249 | 83 | 178 | 2.0 | 0.0 | 0.00 | 0.00 | 0.01 | 65 | 1008.6 |
| 20260902083137 | 83 | 168 | 2.0 | 0.0 | 0.00 | 0.00 | 0.01 | 65 | 1008.6 |
| 20260902082755 | 83 | 159 | 4.0 | 0.0 | 0.00 | 0.00 | 0.01 | 64 | 1008.6 |
| 20260902082243 | 84 | 158 | 4.0 | 0.0 | 0.00 | 0.00 | 0.01 | 62 | 1008.6 |
| 20260902081244 | 84 | 172 | 2.0 | 0.0 | 0.00 | 0.00 | 0.01 | 62 | 1008.6 |
| 20260902080736 | 84 | 186 | 4.0 | 0.0 | 0.00 | 0.00 | 0.01 | 61 | 1008.6 |
| 20260902080253 | 85 | 144 | 4.0 | 0.0 | 0.00 | 0.00 | 0.01 | 61 | 1008.6 |
| 20260902080136 | 85 | 185 | 3.0 | 0.0 | 0.00 | 0.00 | 0.01 | 61 | 1008.6 |
| 20260902075737 | 85 | 154 | 1.0 | 0.0 | 0.00 | 0.00 | 0.01 | 59 | 1008.5 |
| 20260902075245 | 85 | 166 | 0.0 | 0.0 | 0.00 | 0.00 | 0.01 | 58 | 1008.5 |
| 20260902074247 | 86 | 186 | 0.0 | 0.0 | 0.00 | 0.00 | 0.01 | 56 | 1008.4 |
| 20260902073754 | 86 | 186 | 0.0 | 0.0 | 0.00 | 0.00 | 0.01 | 56 | 1008.4 |
| 20260902073141 | 86 | 180 | 0.0 | 0.0 | 0.00 | 0.00 | 0.01 | 56 | 1008.4 |
| 20260902072741 | 86 | 178 | 0.0 | 0.0 | 0.00 | 0.00 | 0.01 | 56 | 1008.3 |
| 20260902072252 | 86 | 221 | 0.0 | 0.0 | 0.00 | 0.00 | 0.01 | 56 | 1008.3 |
| 20260902071745 | 87 | 173 | 0.0 | 0.0 | 0.00 | 0.00 | 0.01 | 56 | 1008.3 |
| 20260902071253 | 87 | 176 | 0.0 | 0.0 | 0.00 | 0.00 | 0.01 | 55 | 1008.2 |
| 20260902070745 | 87 | 186 | 0.0 | 0.0 | 0.00 | 0.00 | 0.01 | 56 | 1008.2 |
| 20260902070241 | 87 | 265 | 0.0 | 0.0 | 0.00 | 0.00 | 0.01 | 55 | 1008.2 |
| 20260902070128 | 87 | 162 | 0.0 | 0.0 | 0.00 | 0.00 | 0.01 | 55 | 1008.2 |
| 20260902065744 | 88 | 182 | 0.0 | 0.0 | 0.00 | 0.00 | 0.01 | 55 | 1008.1 |
| 20260902065252 | 88 | 117 | 0.0 | 0.0 | 0.00 | 0.00 | 0.01 | 54 | 1008.1 |
| 20260902064745 | 88 | 176 | 0.0 | 0.0 | 0.00 | 0.00 | 0.01 | 54 | 1008.1 |
| 20260902064254 | 88 | 170 | 0.0 | 0.0 | 0.00 | 0.00 | 0.01 | 54 | 1008.0 |
| 20260902063743 | 88 | 228 | 0.0 | 0.0 | 0.00 | 0.00 | 0.01 | 53 | 1008.0 |
| 20260902063241 | 89 | 168 | 0.0 | 0.0 | 0.00 | 0.00 | 0.01 | 52 | 1008.0 |
| 20260902063145 | 89 | 234 | 0.0 | 0.0 | 0.00 | 0.00 | 0.01 | 53 | 1008.0 |
| 20260902062745 | 89 | 250 | 0.0 | 0.0 | 0.00 | 0.00 | 0.01 | 53 | 1008.0 |
| 20260902061748 | 89 | 106 | 0.0 | 0.0 | 0.00 | 0.00 | 0.01 | 52 | 1008.0 |
| 20260902061236 | 89 | 240 | 0.0 | 0.0 | 0.00 | 0.00 | 0.01 | 53 | 1008.2 |
| 20260902060251 | 88 | 242 | 0.0 | 0.0 | 0.00 | 0.00 | 0.01 | 54 | 1008.2 |
| 20260902060135 | 88 | 210 | 0.0 | 0.0 | 0.00 | 0.00 | 0.01 | 54 | 1008.2 |
| 20260902055246 | 88 | 180 | 0.0 | 0.0 | 0.00 | 0.00 | 0.01 | 55 | 1008.2 |
| 20260902054737 | 89 | 162 | 0.0 | 0.0 | 0.00 | 0.00 | 0.01 | 53 | 1008.2 |
| 20260902054245 | 89 | 175 | 0.0 | 0.0 | 0.00 | 0.00 | 0.01 | 53 | 1008.3 |
| 20260902053753 | 90 | 180 | 0.0 | 0.0 | 0.00 | 0.00 | 0.01 | 51 | 1008.3 |
| 20260902053248 | 90 | 200 | 0.0 | 0.0 | 0.00 | 0.00 | 0.01 | 51 | 1008.3 |
| 20260902052753 | 90 | 173 | 0.0 | 0.0 | 0.00 | 0.00 | 0.01 | 51 | 1008.5 |
| 20260902052240 | 89 | 103 | 0.0 | 0.0 | 0.00 | 0.00 | 0.01 | 52 | 1008.5 |
| 20260902051733 | 88 | 228 | 0.0 | 0.0 | 0.00 | 0.00 | 0.01 | 54 | 1008.5 |
| 20260902051244 | 89 | 165 | 0.0 | 0.0 | 0.00 | 0.00 | 0.01 | 53 | 1008.7 |
| 20260902050239 | 90 | 132 | 0.0 | 0.0 | 0.00 | 0.00 | 0.01 | 51 | 1008.7 |
| 20260902050143 | 90 | 130 | 0.0 | 0.0 | 0.00 | 0.00 | 0.01 | 51 | 1008.7 |
| 20260902045745 | 89 | 144 | 0.0 | 0.0 | 0.00 | 0.00 | 0.01 | 52 | 1009.0 |
| 20260902044239 | 89 | 216 | 0.0 | 0.0 | 0.00 | 0.00 | 0.01 | 53 | 1009.1 |
| 20260902043746 | 89 | 210 | 0.0 | 0.0 | 0.00 | 0.00 | 0.01 | 52 | 1009.1 |
| 20260902043132 | 89 | 166 | 0.0 | 0.0 | 0.00 | 0.00 | 0.01 | 54 | 1009.1 |
| 20260902042754 | 89 | 186 | 0.0 | 0.0 | 0.00 | 0.00 | 0.01 | 53 | 1009.0 |
| 20260902042242 | 89 | 187 | 0.0 | 0.0 | 0.00 | 0.00 | 0.01 | 55 | 1009.0 |
| 20260902041737 | 89 | 314 | 0.0 | 0.0 | 0.00 | 0.00 | 0.01 | 55 | 1009.0 |
| 20260902041245 | 89 | 179 | 0.0 | 0.0 | 0.00 | 0.00 | 0.01 | 53 | 1009.1 |
| 20260902040737 | 89 | 264 | 0.0 | 0.0 | 0.00 | 0.00 | 0.01 | 53 | 1009.1 |
| 20260902040249 | 89 | 178 | 0.0 | 0.0 | 0.00 | 0.00 | 0.01 | 52 | 1009.1 |
| 20260902035755 | 89 | 193 | 0.0 | 0.0 | 0.00 | 0.00 | 0.01 | 52 | 1009.3 |
| 20260902035244 | 90 | 211 | 0.0 | 0.0 | 0.00 | 0.00 | 0.01 | 52 | 1009.3 |
| 20260902034739 | 90 | 159 | 0.0 | 0.0 | 0.00 | 0.00 | 0.01 | 50 | 1009.3 |
| 20260902034247 | 90 | 186 | 0.0 | 0.0 | 0.00 | 0.00 | 0.01 | 50 | 1009.5 |
| 20260902033737 | 90 | 172 | 0.0 | 0.0 | 0.00 | 0.00 | 0.01 | 52 | 1009.5 |
| 20260902033142 | 90 | 170 | 0.0 | 0.0 | 0.00 | 0.00 | 0.01 | 50 | 1009.5 |
| 20260902032745 | 91 | 193 | 0.0 | 0.0 | 0.00 | 0.00 | 0.01 | 49 | 1009.5 |
| 20260902032252 | 91 | 209 | 0.0 | 0.0 | 0.00 | 0.00 | 0.01 | 49 | 1009.5 |
| 20260902031741 | 90 | 156 | 0.0 | 0.0 | 0.00 | 0.00 | 0.01 | 50 | 1009.5 |
| 20260902031255 | 89 | 259 | 0.0 | 0.0 | 0.00 | 0.00 | 0.01 | 52 | 1009.6 |
| 20260902030753 | 89 | 165 | 0.0 | 0.0 | 0.00 | 0.00 | 0.01 | 51 | 1009.6 |
| 20260902030252 | 89 | 220 | 0.0 | 0.0 | 0.00 | 0.00 | 0.01 | 51 | 1009.6 |
| 20260902030135 | 89 | 151 | 0.0 | 0.0 | 0.00 | 0.00 | 0.01 | 51 | 1009.6 |
| 20260902025740 | 89 | 97 | 0.0 | 0.0 | 0.00 | 0.00 | 0.01 | 52 | 1009.7 |
| 20260902025248 | 89 | 128 | 0.0 | 0.0 | 0.00 | 0.00 | 0.01 | 53 | 1009.7 |
| 20260902023739 | 87 | 252 | 0.0 | 0.0 | 0.00 | 0.00 | 0.01 | 55 | 1009.7 |
| 20260902023255 | 87 | 241 | 0.0 | 0.0 | 0.00 | 0.00 | 0.01 | 55 | 1009.7 |
| 20260902023143 | 87 | 237 | 0.0 | 0.0 | 0.00 | 0.00 | 0.01 | 55 | 1009.7 |
| 20260902022237 | 88 | 252 | 0.0 | 0.0 | 0.00 | 0.00 | 0.01 | 53 | 1010.0 |
| 20260902021750 | 88 | 262 | 0.0 | 0.0 | 0.00 | 0.00 | 0.01 | 53 | 1010.0 |
| 20260902021244 | 88 | 265 | 0.0 | 0.0 | 0.00 | 0.00 | 0.01 | 55 | 1010.1 |
| 20260902020244 | 87 | 70 | 0.0 | 0.0 | 0.00 | 0.00 | 0.01 | 57 | 1010.1 |
| 20260902020130 | 87 | 76 | 0.0 | 0.0 | 0.00 | 0.00 | 0.01 | 57 | 1010.1 |
| 20260902014742 | 85 | 50 | 0.0 | 0.0 | 0.00 | 0.00 | 0.01 | 61 | 1010.1 |
| 20260902013746 | 85 | 55 | 0.0 | 0.0 | 0.00 | 0.00 | 0.01 | 62 | 1010.5 |
| 20260902013245 | 84 | 100 | 0.0 | 0.0 | 0.00 | 0.00 | 0.01 | 64 | 1010.5 |
| 20260902013129 | 84 | 348 | 0.0 | 0.0 | 0.00 | 0.00 | 0.01 | 64 | 1010.5 |
| 20260902012752 | 84 | 1 | 0.0 | 0.0 | 0.00 | 0.00 | 0.01 | 68 | 1010.7 |
| 20260902012242 | 83 | 360 | 0.0 | 0.0 | 0.00 | 0.00 | 0.01 | 69 | 1010.7 |
| 20260902011248 | 82 | 360 | 0.0 | 0.0 | 0.00 | 0.00 | 0.01 | 69 | 1010.7 |
| 20260902010743 | 82 | 1 | 0.0 | 0.0 | 0.00 | 0.00 | 0.01 | 68 | 1010.7 |
| 20260902010128 | 83 | 360 | 0.0 | 0.0 | 0.00 | 0.00 | 0.01 | 70 | 1010.7 |
| 20260902005747 | 82 | 355 | 0.0 | 0.0 | 0.00 | 0.00 | 0.01 | 71 | 1010.7 |
| 20260902004739 | 81 | 355 | 0.0 | 0.0 | 0.00 | 0.00 | 0.01 | 74 | 1010.7 |
| 20260902004249 | 81 | 355 | 0.0 | 0.0 | 0.00 | 0.00 | 0.01 | 77 | 1010.8 |
| 20260902003739 | 80 | 49 | 0.0 | 0.0 | 0.00 | 0.00 | 0.01 | 78 | 1010.8 |
| 20260902003239 | 80 | 31 | 0.0 | 0.0 | 0.00 | 0.00 | 0.01 | 79 | 1010.8 |
| 20260902003143 | 80 | 32 | 0.0 | 0.0 | 0.00 | 0.00 | 0.01 | 79 | 1010.8 |
| 20260902002748 | 79 | 39 | 0.0 | 0.0 | 0.00 | 0.00 | 0.01 | 80 | 1010.6 |
| 20260902002238 | 79 | 38 | 0.0 | 0.0 | 0.00 | 0.00 | 0.01 | 83 | 1010.6 |
| 20260902001754 | 79 | 355 | 0.0 | 0.0 | 0.00 | 0.00 | 0.01 | 86 | 1010.6 |
| 20260902001244 | 78 | 354 | 0.0 | 0.0 | 0.00 | 0.00 | 0.01 | 87 | 1010.6 |
| 20260902000244 | 77 | 353 | 0.0 | 0.0 | 0.00 | 0.00 | 0.01 | 89 | 1010.6 |
| 20260902000127 | 77 | 353 | 0.0 | 0.0 | 0.00 | 0.00 | 0.01 | 89 | 1010.6 |
| 20260901235751 | 77 | 354 | 0.0 | 0.0 | 0.00 | 0.00 | 0.01 | 90 | 1010.7 |
| 20260901235241 | 77 | 353 | 0.0 | 0.0 | 0.00 | 0.00 | 0.01 | 90 | 1010.7 |
| 20260901234735 | 77 | 31 | 0.0 | 0.0 | 0.00 | 0.00 | 0.01 | 91 | 1010.7 |
| 20260901234245 | 76 | 343 | 0.0 | 0.0 | 0.00 | 0.00 | 0.01 | 91 | 1010.8 |
| 20260901233754 | 76 | 341 | 0.0 | 0.0 | 0.00 | 0.00 | 0.01 | 92 | 1010.8 |
| 20260901233254 | 75 | 340 | 0.0 | 0.0 | 0.00 | 0.00 | 0.01 | 91 | 1010.8 |
| 20260901233138 | 75 | 340 | 0.0 | 0.0 | 0.00 | 0.00 | 0.01 | 91 | 1010.8 |
| 20260901232254 | 75 | 340 | 0.0 | 0.0 | 0.00 | 0.00 | 0.01 | 92 | 1010.7 |
| 20260901230745 | 75 | 338 | 0.0 | 0.0 | 0.00 | 0.00 | 0.01 | 92 | 1010.6 |
| 20260901230243 | 75 | 338 | 0.0 | 0.0 | 0.00 | 0.00 | 0.01 | 92 | 1010.6 |
| 20260901225752 | 75 | 337 | 0.0 | 0.0 | 0.00 | 0.00 | 0.01 | 92 | 1010.5 |
| 20260901225244 | 75 | 337 | 0.0 | 0.0 | 0.00 | 0.00 | 0.01 | 92 | 1010.5 |
| 20260901224738 | 75 | 337 | 0.0 | 0.0 | 0.00 | 0.00 | 0.01 | 92 | 1010.5 |
| 20260901224251 | 75 | 337 | 0.0 | 0.0 | 0.00 | 0.00 | 0.01 | 92 | 1010.7 |
| 20260901223744 | 75 | 337 | 0.0 | 0.0 | 0.00 | 0.00 | 0.01 | 92 | 1010.7 |
| 20260901222254 | 75 | 337 | 0.0 | 0.0 | 0.00 | 0.00 | 0.01 | 92 | 1010.7 |
| 20260901221748 | 75 | 337 | 0.0 | 0.0 | 0.00 | 0.00 | 0.01 | 92 | 1010.7 |
| 20260901221239 | 74 | 337 | 0.0 | 0.0 | 0.00 | 0.00 | 0.01 | 92 | 1010.8 |
| 20260901220254 | 74 | 337 | 0.0 | 0.0 | 0.00 | 0.00 | 0.01 | 92 | 1010.8 |
| 20260901215739 | 74 | 337 | 0.0 | 0.0 | 0.00 | 0.00 | 0.01 | 92 | 1011.0 |
| 20260901215250 | 74 | 337 | 0.0 | 0.0 | 0.00 | 0.00 | 0.01 | 92 | 1011.0 |
| 20260901214743 | 74 | 337 | 0.0 | 0.0 | 0.00 | 0.00 | 0.01 | 92 | 1011.0 |
| 20260901213753 | 74 | 337 | 0.0 | 0.0 | 0.00 | 0.00 | 0.01 | 92 | 1011.0 |
| 20260901213252 | 74 | 337 | 0.0 | 0.0 | 0.00 | 0.00 | 0.01 | 92 | 1011.0 |
| 20260901213136 | 74 | 336 | 0.0 | 0.0 | 0.00 | 0.00 | 0.01 | 92 | 1011.0 |
| 20260901212739 | 74 | 336 | 0.0 | 0.0 | 0.00 | 0.00 | 0.01 | 92 | 1011.0 |
| 20260901212250 | 74 | 337 | 0.0 | 0.0 | 0.00 | 0.00 | 0.01 | 92 | 1011.0 |
| 20260901211743 | 74 | 337 | 0.0 | 0.0 | 0.00 | 0.00 | 0.01 | 92 | 1011.0 |
| 20260901211239 | 74 | 337 | 0.0 | 0.0 | 0.00 | 0.00 | 0.01 | 92 | 1011.0 |
| 20260901210732 | 74 | 337 | 0.0 | 0.0 | 0.00 | 0.00 | 0.01 | 92 | 1011.0 |
| 20260901210253 | 74 | 337 | 0.0 | 0.0 | 0.00 | 0.00 | 0.01 | 92 | 1011.0 |
| 20260901205742 | 74 | 337 | 0.0 | 0.0 | 0.00 | 0.00 | 0.01 | 92 | 1011.0 |
| 20260901205252 | 74 | 336 | 0.0 | 0.0 | 0.00 | 0.00 | 0.01 | 92 | 1011.0 |
| 20260901204747 | 74 | 336 | 0.0 | 0.0 | 0.00 | 0.00 | 0.01 | 92 | 1011.0 |
| 20260901203750 | 74 | 337 | 0.0 | 0.0 | 0.00 | 0.00 | 0.01 | 92 | 1011.0 |
| 20260901203138 | 74 | 337 | 0.0 | 0.0 | 0.00 | 0.00 | 0.01 | 92 | 1011.0 |
| 20260901202248 | 74 | 337 | 0.0 | 0.0 | 0.00 | 0.00 | 0.01 | 92 | 1011.1 |
| 20260901201742 | 74 | 337 | 0.0 | 0.0 | 0.00 | 0.00 | 0.01 | 92 | 1011.1 |
| 20260901201252 | 74 | 337 | 0.0 | 0.0 | 0.00 | 0.00 | 0.01 | 92 | 1011.1 |
| 20260901200747 | 74 | 337 | 0.0 | 0.0 | 0.00 | 0.00 | 0.01 | 92 | 1011.1 |
| 20260901200246 | 74 | 337 | 0.0 | 0.0 | 0.00 | 0.00 | 0.01 | 92 | 1011.1 |
| 20260901195735 | 74 | 337 | 0.0 | 0.0 | 0.00 | 0.00 | 0.01 | 92 | 1011.0 |
| 20260901195245 | 74 | 337 | 0.0 | 0.0 | 0.00 | 0.00 | 0.01 | 92 | 1011.0 |
| 20260901194740 | 74 | 337 | 0.0 | 0.0 | 0.00 | 0.00 | 0.01 | 92 | 1011.0 |
| 20260901194250 | 74 | 337 | 0.0 | 0.0 | 0.00 | 0.00 | 0.01 | 92 | 1011.1 |
| 20260901193740 | 74 | 337 | 0.0 | 0.0 | 0.00 | 0.00 | 0.01 | 92 | 1011.1 |
| 20260901193254 | 74 | 337 | 0.0 | 0.0 | 0.00 | 0.00 | 0.01 | 92 | 1011.1 |
| 20260901193138 | 74 | 337 | 0.0 | 0.0 | 0.00 | 0.00 | 0.01 | 92 | 1011.1 |
| 20260901192740 | 74 | 337 | 0.0 | 0.0 | 0.00 | 0.00 | 0.01 | 91 | 1011.1 |
| 20260901192251 | 74 | 337 | 0.0 | 0.0 | 0.00 | 0.00 | 0.01 | 91 | 1011.1 |
| 20260901191744 | 74 | 337 | 0.0 | 0.0 | 0.00 | 0.00 | 0.01 | 91 | 1011.1 |
| 20260901191236 | 74 | 337 | 0.0 | 0.0 | 0.00 | 0.00 | 0.01 | 91 | 1011.1 |
| 20260901190749 | 74 | 337 | 0.0 | 0.0 | 0.00 | 0.00 | 0.01 | 91 | 1011.1 |
| 20260901190249 | 74 | 337 | 0.0 | 0.0 | 0.00 | 0.00 | 0.01 | 91 | 1011.1 |
| 20260901185250 | 74 | 337 | 0.0 | 0.0 | 0.00 | 0.00 | 0.01 | 91 | 1011.1 |
| 20260901184744 | 74 | 337 | 0.0 | 0.0 | 0.00 | 0.00 | 0.01 | 91 | 1011.1 |
| 20260901184236 | 74 | 337 | 0.0 | 0.0 | 0.00 | 0.00 | 0.01 | 91 | 1011.1 |
| 20260901183744 | 74 | 337 | 0.0 | 0.0 | 0.00 | 0.00 | 0.00 | 91 | 1011.1 |
| 20260901183245 | 74 | 337 | 0.0 | 0.0 | 0.00 | 0.00 | 0.00 | 91 | 1011.1 |
| 20260901183129 | 74 | 337 | 0.0 | 0.0 | 0.00 | 0.00 | 0.00 | 91 | 1011.1 |
| 20260901182752 | 74 | 337 | 0.0 | 0.0 | 0.00 | 0.00 | 0.00 | 91 | 1011.2 |
| 20260901182241 | 74 | 337 | 0.0 | 0.0 | 0.00 | 0.00 | 0.00 | 91 | 1011.2 |
| 20260901181249 | 74 | 337 | 0.0 | 0.0 | 0.00 | 0.00 | 0.00 | 91 | 1011.3 |
| 20260901180248 | 74 | 337 | 0.0 | 0.0 | 0.00 | 0.00 | 0.00 | 91 | 1011.3 |
| 20260901180136 | 74 | 337 | 0.0 | 0.0 | 0.00 | 0.00 | 0.00 | 91 | 1011.3 |
| 20260901175734 | 74 | 337 | 0.0 | 0.0 | 0.00 | 0.00 | 0.00 | 91 | 1011.5 |
| 20260901174747 | 74 | 337 | 0.0 | 0.0 | 0.00 | 0.00 | 0.00 | 91 | 1011.5 |
| 20260901174236 | 74 | 337 | 0.0 | 0.0 | 0.00 | 0.00 | 0.00 | 91 | 1011.6 |
| 20260901173252 | 74 | 337 | 0.0 | 0.0 | 0.00 | 0.00 | 0.00 | 91 | 1011.6 |
| 20260901173136 | 74 | 337 | 0.0 | 0.0 | 0.00 | 0.00 | 0.00 | 91 | 1011.6 |
| 20260901172235 | 74 | 337 | 0.0 | 0.0 | 0.00 | 0.00 | 0.00 | 91 | 1011.6 |
| 20260901171747 | 74 | 337 | 0.0 | 0.0 | 0.00 | 0.00 | 0.00 | 91 | 1011.6 |
| 20260901171238 | 74 | 337 | 0.0 | 0.0 | 0.00 | 0.00 | 0.00 | 91 | 1011.5 |
| 20260901170753 | 74 | 337 | 0.0 | 0.0 | 0.00 | 0.00 | 0.00 | 91 | 1011.5 |
| 20260901170252 | 74 | 338 | 0.0 | 0.0 | 0.00 | 0.00 | 0.00 | 91 | 1011.5 |
| 20260901170136 | 74 | 337 | 0.0 | 0.0 | 0.00 | 0.00 | 0.00 | 91 | 1011.5 |
| 20260901165735 | 74 | 337 | 0.0 | 0.0 | 0.00 | 0.00 | 0.00 | 91 | 1011.6 |
| 20260901165249 | 74 | 337 | 0.0 | 0.0 | 0.00 | 0.00 | 0.00 | 91 | 1011.6 |
| 20260901164242 | 74 | 337 | 0.0 | 0.0 | 0.00 | 0.00 | 0.00 | 91 | 1011.6 |
| 20260901163753 | 74 | 337 | 0.0 | 0.0 | 0.00 | 0.00 | 0.00 | 91 | 1011.6 |
| 20260901163252 | 74 | 337 | 0.0 | 0.0 | 0.00 | 0.00 | 0.00 | 91 | 1011.6 |
| 20260901163136 | 74 | 337 | 0.0 | 0.0 | 0.00 | 0.00 | 0.00 | 91 | 1011.6 |
| 20260901162738 | 75 | 337 | 0.0 | 0.0 | 0.00 | 0.00 | 0.00 | 91 | 1011.7 |
| 20260901162243 | 75 | 337 | 0.0 | 0.0 | 0.00 | 0.00 | 0.00 | 91 | 1011.7 |
| 20260901161741 | 75 | 337 | 0.0 | 0.0 | 0.00 | 0.00 | 0.00 | 90 | 1011.7 |
| 20260901161252 | 75 | 337 | 0.0 | 0.0 | 0.00 | 0.00 | 0.00 | 90 | 1011.7 |
| 20260901160746 | 75 | 337 | 0.0 | 0.0 | 0.00 | 0.00 | 0.00 | 90 | 1011.7 |
| 20260901160245 | 75 | 337 | 0.0 | 0.0 | 0.00 | 0.00 | 0.00 | 90 | 1011.7 |
| 20260901160130 | 75 | 337 | 0.0 | 0.0 | 0.00 | 0.00 | 0.00 | 90 | 1011.7 |
| 20260901155753 | 75 | 337 | 0.0 | 0.0 | 0.00 | 0.00 | 0.00 | 90 | 1011.8 |
| 20260901155243 | 75 | 337 | 0.0 | 0.0 | 0.00 | 0.00 | 0.00 | 90 | 1011.8 |
| 20260901154253 | 75 | 336 | 0.0 | 0.0 | 0.00 | 0.00 | 0.00 | 90 | 1012.1 |
| 20260901153742 | 75 | 337 | 0.0 | 0.0 | 0.00 | 0.00 | 0.00 | 90 | 1012.1 |
| 20260901153126 | 75 | 337 | 0.0 | 0.0 | 0.00 | 0.00 | 0.00 | 90 | 1012.1 |
| 20260901152746 | 75 | 337 | 0.0 | 0.0 | 0.00 | 0.00 | 0.00 | 90 | 1012.2 |
| 20260901152236 | 75 | 337 | 0.0 | 0.0 | 0.00 | 0.00 | 0.00 | 90 | 1012.2 |
| 20260901151751 | 75 | 336 | 0.0 | 0.0 | 0.00 | 0.00 | 0.00 | 90 | 1012.2 |
| 20260901151243 | 75 | 337 | 0.0 | 0.0 | 0.00 | 0.00 | 0.00 | 89 | 1012.2 |
| 20260901150743 | 75 | 337 | 0.0 | 0.0 | 0.00 | 0.00 | 0.00 | 89 | 1012.2 |
| 20260901150131 | 75 | 336 | 0.0 | 0.0 | 0.00 | 0.00 | 0.00 | 89 | 1012.2 |
| 20260901145753 | 75 | 337 | 0.0 | 0.0 | 0.00 | 0.00 | 0.05 | 89 | 1012.6 |
| 20260901145241 | 75 | 336 | 0.0 | 0.0 | 0.00 | 0.00 | 0.05 | 89 | 1012.6 |
| 20260901144752 | 75 | 336 | 0.0 | 0.0 | 0.00 | 0.00 | 0.05 | 89 | 1012.6 |
| 20260901144243 | 75 | 337 | 0.0 | 0.0 | 0.00 | 0.00 | 0.05 | 89 | 1012.5 |
| 20260901143755 | 75 | 336 | 0.0 | 0.0 | 0.00 | 0.00 | 0.05 | 89 | 1012.5 |
| 20260901143244 | 75 | 336 | 0.0 | 0.0 | 0.00 | 0.00 | 0.05 | 89 | 1012.5 |
| 20260901143129 | 75 | 337 | 0.0 | 0.0 | 0.00 | 0.00 | 0.05 | 89 | 1012.5 |
| 20260901142751 | 76 | 337 | 0.0 | 0.0 | 0.00 | 0.00 | 0.05 | 89 | 1012.6 |
| 20260901141741 | 76 | 337 | 0.0 | 0.0 | 0.00 | 0.00 | 0.05 | 89 | 1012.6 |
| 20260901141251 | 76 | 336 | 0.0 | 0.0 | 0.00 | 0.00 | 0.05 | 88 | 1012.6 |
| 20260901140247 | 76 | 337 | 0.0 | 0.0 | 0.00 | 0.00 | 0.05 | 88 | 1012.6 |
| 20260901140135 | 76 | 336 | 0.0 | 0.0 | 0.00 | 0.00 | 0.05 | 88 | 1012.6 |
| 20260901135753 | 76 | 336 | 0.0 | 0.0 | 0.00 | 0.00 | 0.05 | 88 | 1012.6 |
| 20260901135242 | 76 | 337 | 0.0 | 0.0 | 0.00 | 0.00 | 0.05 | 87 | 1012.6 |
| 20260901134737 | 76 | 337 | 0.0 | 0.0 | 0.00 | 0.00 | 0.04 | 87 | 1012.6 |
| 20260901134248 | 76 | 337 | 0.0 | 0.0 | 0.00 | 0.00 | 0.04 | 87 | 1012.6 |
| 20260901133738 | 76 | 338 | 0.0 | 0.0 | 0.00 | 0.00 | 0.04 | 87 | 1012.6 |
| 20260901133236 | 75 | 337 | 0.0 | 0.0 | 0.00 | 0.00 | 0.03 | 86 | 1012.6 |
| 20260901133140 | 76 | 337 | 0.0 | 0.0 | 0.00 | 0.00 | 0.03 | 86 | 1012.6 |
| 20260901132240 | 76 | 337 | 0.0 | 0.0 | 0.00 | 0.00 | 0.03 | 86 | 1012.6 |
| 20260901131245 | 76 | 337 | 0.0 | 0.0 | 0.00 | 0.00 | 0.02 | 85 | 1012.6 |
| 20260901130737 | 76 | 337 | 0.0 | 0.0 | 0.00 | 0.00 | 0.02 | 85 | 1012.6 |
| 20260901130143 | 76 | 336 | 0.0 | 0.0 | 0.00 | 0.00 | 0.02 | 85 | 1012.6 |
| 20260901125741 | 76 | 337 | 0.0 | 0.0 | 0.00 | 0.00 | 0.02 | 84 | 1012.7 |
| 20260901125252 | 76 | 337 | 0.0 | 0.0 | 0.00 | 0.00 | 0.02 | 84 | 1012.7 |
| 20260901123736 | 76 | 338 | 0.0 | 0.0 | 0.00 | 0.00 | 0.02 | 83 | 1012.6 |
| 20260901123254 | 77 | 337 | 0.0 | 0.0 | 0.00 | 0.00 | 0.01 | 83 | 1012.7 |
| 20260901123138 | 77 | 329 | 0.0 | 0.0 | 0.00 | 0.00 | 0.01 | 83 | 1012.7 |
| 20260901122243 | 77 | 327 | 0.0 | 0.0 | 0.00 | 0.00 | 0.01 | 82 | 1012.7 |
| 20260901121249 | 77 | 327 | 0.0 | 0.0 | 0.00 | 0.00 | 0.01 | 81 | 1012.8 |
| 20260901120250 | 77 | 324 | 0.0 | 0.0 | 0.00 | 0.00 | 0.01 | 81 | 1012.8 |
| 20260901120136 | 77 | 323 | 0.0 | 0.0 | 0.00 | 0.00 | 0.01 | 81 | 1012.8 |
| 20260901115736 | 77 | 323 | 0.0 | 0.0 | 0.00 | 0.00 | 0.00 | 80 | 1012.7 |
| 20260901115246 | 78 | 324 | 0.0 | 0.0 | 0.00 | 0.00 | 0.00 | 80 | 1012.7 |
| 20260901114754 | 78 | 324 | 0.0 | 0.0 | 0.00 | 0.00 | 0.00 | 80 | 1012.7 |
| 20260901114243 | 78 | 323 | 0.0 | 0.0 | 0.00 | 0.00 | 0.00 | 80 | 1012.7 |
| 20260901113142 | 78 | 323 | 0.0 | 0.0 | 0.00 | 0.00 | 0.00 | 79 | 1012.7 |
| 20260901112745 | 78 | 323 | 0.0 | 0.0 | 0.00 | 0.00 | 0.00 | 78 | 1012.7 |
| 20260901112235 | 78 | 323 | 0.0 | 0.0 | 0.00 | 0.00 | 0.00 | 78 | 1012.7 |
| 20260901111751 | 78 | 324 | 0.0 | 0.0 | 0.00 | 0.00 | 0.00 | 77 | 1012.7 |
| 20260901111242 | 78 | 323 | 0.0 | 0.0 | 0.00 | 0.00 | 0.00 | 77 | 1012.6 |
| 20260901110736 | 78 | 324 | 0.0 | 0.0 | 0.00 | 0.00 | 0.00 | 77 | 1012.6 |
| 20260901110250 | 78 | 323 | 0.0 | 0.0 | 0.00 | 0.00 | 0.00 | 77 | 1012.6 |
| 20260901110138 | 78 | 323 | 0.0 | 0.0 | 0.00 | 0.00 | 0.00 | 76 | 1012.6 |
| 20260901105735 | 78 | 323 | 0.0 | 0.0 | 0.00 | 0.00 | 0.00 | 76 | 1012.5 |
| 20260901105245 | 78 | 324 | 0.0 | 0.0 | 0.00 | 0.00 | 0.00 | 76 | 1012.5 |
| 20260901104237 | 79 | 323 | 0.0 | 0.0 | 0.00 | 0.00 | 0.00 | 75 | 1012.3 |
| 20260901103746 | 79 | 323 | 0.0 | 0.0 | 0.00 | 0.00 | 0.00 | 75 | 1012.3 |
| 20260901103246 | 79 | 323 | 0.0 | 0.0 | 0.00 | 0.00 | 0.00 | 75 | 1012.3 |
| 20260901103133 | 79 | 323 | 0.0 | 0.0 | 0.00 | 0.00 | 0.00 | 74 | 1012.3 |
| 20260901102735 | 79 | 323 | 0.0 | 0.0 | 0.00 | 0.00 | 0.00 | 74 | 1012.2 |
| 20260901102245 | 79 | 323 | 0.0 | 0.0 | 0.00 | 0.00 | 0.00 | 74 | 1012.2 |
| 20260901101741 | 79 | 323 | 0.0 | 0.0 | 0.00 | 0.00 | 0.00 | 74 | 1012.2 |
| 20260901101251 | 79 | 323 | 0.0 | 0.0 | 0.00 | 0.00 | 0.00 | 73 | 1012.0 |
| 20260901100745 | 79 | 330 | 0.0 | 0.0 | 0.00 | 0.00 | 0.00 | 73 | 1012.0 |
| 20260901100243 | 79 | 329 | 0.0 | 0.0 | 0.00 | 0.00 | 0.00 | 72 | 1012.0 |
| 20260901100130 | 79 | 330 | 0.0 | 0.0 | 0.00 | 0.00 | 0.00 | 72 | 1012.0 |
| 20260901095749 | 79 | 329 | 0.0 | 0.0 | 0.00 | 0.00 | 0.00 | 71 | 1011.9 |
| 20260901095240 | 79 | 329 | 0.0 | 0.0 | 0.00 | 0.00 | 0.00 | 71 | 1011.9 |
| 20260901094736 | 79 | 326 | 0.0 | 0.0 | 0.00 | 0.00 | 0.00 | 71 | 1011.9 |
| 20260901094245 | 79 | 329 | 0.0 | 0.0 | 0.00 | 0.00 | 0.00 | 71 | 1011.8 |
| 20260901093736 | 79 | 327 | 0.0 | 0.0 | 0.00 | 0.00 | 0.00 | 70 | 1011.8 |
| 20260901093254 | 79 | 327 | 0.0 | 0.0 | 0.00 | 0.00 | 0.00 | 70 | 1011.8 |
| 20260901092744 | 79 | 327 | 0.0 | 0.0 | 0.00 | 0.00 | 0.00 | 70 | 1011.7 |
| 20260901092235 | 79 | 322 | 0.0 | 0.0 | 0.00 | 0.00 | 0.00 | 69 | 1011.7 |
| 20260901091749 | 80 | 330 | 0.0 | 0.0 | 0.00 | 0.00 | 0.00 | 69 | 1011.7 |
| 20260901091235 | 80 | 331 | 0.0 | 0.0 | 0.00 | 0.00 | 0.00 | 69 | 1011.7 |
| 20260901090735 | 80 | 324 | 0.0 | 0.0 | 0.00 | 0.00 | 0.00 | 69 | 1011.7 |
| 20260901090252 | 80 | 322 | 0.0 | 0.0 | 0.00 | 0.00 | 0.00 | 68 | 1011.7 |
| 20260901090136 | 80 | 323 | 0.0 | 0.0 | 0.00 | 0.00 | 0.00 | 68 | 1011.7 |
| 20260901085739 | 80 | 323 | 0.0 | 0.0 | 0.00 | 0.00 | 0.00 | 68 | 1011.6 |
| 20260901085249 | 80 | 323 | 0.0 | 0.0 | 0.00 | 0.00 | 0.00 | 68 | 1011.6 |
| 20260901084745 | 80 | 322 | 0.0 | 0.0 | 0.00 | 0.00 | 0.00 | 68 | 1011.6 |
| 20260901084235 | 80 | 323 | 0.0 | 0.0 | 0.00 | 0.00 | 0.00 | 67 | 1011.6 |
| 20260901083300 | 80 | 323 | 0.0 | 0.0 | 0.00 | 0.00 | 0.00 | 67 | 1011.6 |
| 20260901082240 | 81 | 323 | 0.0 | 0.0 | 0.00 | 0.00 | 0.00 | 66 | 1011.6 |
| 20260901081735 | 81 | 324 | 0.0 | 0.0 | 0.00 | 0.00 | 0.00 | 66 | 1011.6 |
| 20260901080748 | 81 | 330 | 0.0 | 0.0 | 0.00 | 0.00 | 0.00 | 65 | 1011.6 |
| 20260901080248 | 81 | 334 | 0.0 | 0.0 | 0.00 | 0.00 | 0.00 | 65 | 1011.6 |
| 20260901080131 | 81 | 338 | 0.0 | 0.0 | 0.00 | 0.00 | 0.00 | 65 | 1011.6 |
| 20260901075754 | 81 | 341 | 0.0 | 0.0 | 0.00 | 0.00 | 0.00 | 65 | 1011.6 |
| 20260901075243 | 81 | 341 | 0.0 | 0.0 | 0.00 | 0.00 | 0.00 | 65 | 1011.6 |
| 20260901074738 | 81 | 347 | 0.0 | 0.0 | 0.00 | 0.00 | 0.00 | 64 | 1011.6 |
| 20260901074250 | 81 | 350 | 0.0 | 0.0 | 0.00 | 0.00 | 0.00 | 64 | 1011.5 |
| 20260901073236 | 82 | 19 | 0.0 | 0.0 | 0.00 | 0.00 | 0.00 | 63 | 1011.5 |
| 20260901073142 | 82 | 1 | 0.0 | 0.0 | 0.00 | 0.00 | 0.00 | 63 | 1011.5 |
| 20260901072745 | 82 | 2 | 0.0 | 0.0 | 0.00 | 0.00 | 0.00 | 63 | 1011.5 |
| 20260901072256 | 82 | 11 | 0.0 | 0.0 | 0.00 | 0.00 | 0.00 | 62 | 1011.5 |
| 20260901071750 | 82 | 12 | 0.0 | 0.0 | 0.00 | 0.00 | 0.00 | 62 | 1011.5 |
| 20260901071240 | 82 | 12 | 0.0 | 0.0 | 0.00 | 0.00 | 0.00 | 62 | 1011.5 |
| 20260901070754 | 82 | 17 | 0.0 | 0.0 | 0.00 | 0.00 | 0.00 | 61 | 1011.5 |
| 20260901070236 | 82 | 357 | 0.0 | 0.0 | 0.00 | 0.00 | 0.00 | 61 | 1011.5 |
| 20260901070142 | 82 | 357 | 0.0 | 0.0 | 0.00 | 0.00 | 0.00 | 61 | 1011.5 |
| 20260901065745 | 82 | 355 | 0.0 | 0.0 | 0.00 | 0.00 | 0.00 | 61 | 1011.6 |
| 20260901065239 | 82 | 355 | 0.0 | 0.0 | 0.00 | 0.00 | 0.00 | 60 | 1011.6 |
| 20260901064735 | 82 | 357 | 0.0 | 0.0 | 0.00 | 0.00 | 0.00 | 60 | 1011.6 |
| 20260901064244 | 82 | 355 | 0.0 | 0.0 | 0.00 | 0.00 | 0.00 | 60 | 1011.5 |
| 20260901063255 | 83 | 355 | 0.0 | 0.0 | 0.00 | 0.00 | 0.00 | 59 | 1011.5 |
| 20260901062744 | 83 | 1 | 0.0 | 0.0 | 0.00 | 0.00 | 0.00 | 59 | 1011.6 |
| 20260901061752 | 83 | 46 | 0.0 | 0.0 | 0.00 | 0.00 | 0.00 | 59 | 1011.6 |
| 20260901061243 | 83 | 46 | 0.0 | 0.0 | 0.00 | 0.00 | 0.00 | 59 | 1011.6 |
| 20260901060741 | 83 | 49 | 0.0 | 0.0 | 0.00 | 0.00 | 0.00 | 59 | 1011.6 |
| 20260901060239 | 83 | 50 | 0.0 | 0.0 | 0.00 | 0.00 | 0.00 | 59 | 1011.6 |
| 20260901055747 | 83 | 50 | 0.0 | 0.0 | 0.00 | 0.00 | 0.00 | 59 | 1011.7 |
| 20260901055236 | 83 | 53 | 0.0 | 0.0 | 0.00 | 0.00 | 0.00 | 58 | 1011.7 |
| 20260901054749 | 83 | 53 | 0.0 | 0.0 | 0.00 | 0.00 | 0.00 | 58 | 1011.7 |
| 20260901054238 | 83 | 55 | 0.0 | 0.0 | 0.00 | 0.00 | 0.00 | 58 | 1011.6 |
| 20260901053748 | 84 | 48 | 0.0 | 0.0 | 0.00 | 0.00 | 0.00 | 57 | 1011.7 |
| 20260901053252 | 84 | 48 | 0.0 | 0.0 | 0.00 | 0.00 | 0.00 | 57 | 1011.7 |
| 20260901053136 | 84 | 48 | 0.0 | 0.0 | 0.00 | 0.00 | 0.00 | 57 | 1011.7 |
| 20260901052739 | 84 | 48 | 0.0 | 0.0 | 0.00 | 0.00 | 0.00 | 56 | 1011.7 |
| 20260901052249 | 84 | 48 | 0.0 | 0.0 | 0.00 | 0.00 | 0.00 | 57 | 1011.7 |
| 20260901051745 | 84 | 38 | 0.0 | 0.0 | 0.00 | 0.00 | 0.00 | 56 | 1011.7 |
| 20260901051235 | 84 | 38 | 0.0 | 0.0 | 0.00 | 0.00 | 0.00 | 56 | 1011.7 |
| 20260901050139 | 85 | 36 | 0.0 | 0.0 | 0.00 | 0.00 | 0.00 | 56 | 1011.7 |
| 20260901045743 | 85 | 38 | 0.0 | 0.0 | 0.00 | 0.00 | 0.00 | 55 | 1011.7 |
| 20260901045235 | 85 | 79 | 0.0 | 0.0 | 0.00 | 0.00 | 0.00 | 55 | 1011.7 |
| 20260901044749 | 85 | 79 | 0.0 | 0.0 | 0.00 | 0.00 | 0.00 | 55 | 1011.7 |
| 20260901044238 | 85 | 2 | 0.0 | 0.0 | 0.00 | 0.00 | 0.00 | 54 | 1011.9 |
| 20260901043751 | 85 | 4 | 0.0 | 0.0 | 0.00 | 0.00 | 0.00 | 55 | 1011.9 |
| 20260901043249 | 85 | 8 | 0.0 | 0.0 | 0.00 | 0.00 | 0.00 | 56 | 1011.9 |
| 20260901042738 | 85 | 28 | 0.0 | 0.0 | 0.00 | 0.00 | 0.00 | 56 | 1011.8 |
| 20260901042244 | 85 | 21 | 0.0 | 0.0 | 0.00 | 0.00 | 0.00 | 56 | 1011.8 |
| 20260901041235 | 85 | 19 | 0.0 | 0.0 | 0.00 | 0.00 | 0.00 | 55 | 1012.1 |
| 20260901040751 | 85 | 5 | 0.0 | 0.0 | 0.00 | 0.00 | 0.00 | 56 | 1012.1 |
| 20260901040250 | 84 | 8 | 0.0 | 0.0 | 0.00 | 0.00 | 0.00 | 57 | 1012.1 |
| 20260901040134 | 84 | 355 | 0.0 | 0.0 | 0.00 | 0.00 | 0.00 | 58 | 1012.1 |
| 20260901035735 | 84 | 357 | 0.0 | 0.0 | 0.00 | 0.00 | 0.00 | 58 | 1012.1 |
| 20260901035244 | 83 | 354 | 0.0 | 0.0 | 0.00 | 0.00 | 0.00 | 58 | 1012.1 |
| 20260901034743 | 83 | 8 | 0.0 | 0.0 | 0.00 | 0.00 | 0.00 | 59 | 1012.1 |
| 20260901033748 | 83 | 357 | 0.0 | 0.0 | 0.00 | 0.00 | 0.00 | 59 | 1012.2 |
| 20260901033243 | 83 | 1 | 0.0 | 0.0 | 0.00 | 0.00 | 0.00 | 59 | 1012.2 |
| 20260901033131 | 83 | 1 | 0.0 | 0.0 | 0.00 | 0.00 | 0.00 | 59 | 1012.2 |
| 20260901032751 | 82 | 1 | 0.0 | 0.0 | 0.00 | 0.00 | 0.00 | 60 | 1012.3 |
| 20260901032240 | 82 | 48 | 0.0 | 0.0 | 0.00 | 0.00 | 0.00 | 60 | 1012.3 |
| 20260901031735 | 82 | 122 | 0.0 | 0.0 | 0.00 | 0.00 | 0.00 | 60 | 1012.3 |
| 20260901031250 | 82 | 346 | 0.0 | 0.0 | 0.00 | 0.00 | 0.00 | 61 | 1012.4 |
| 20260901030748 | 82 | 331 | 0.0 | 0.0 | 0.00 | 0.00 | 0.00 | 61 | 1012.4 |
| 20260901030137 | 82 | 331 | 0.0 | 0.0 | 0.00 | 0.00 | 0.00 | 61 | 1012.4 |
| 20260901025738 | 82 | 322 | 0.0 | 0.0 | 0.00 | 0.00 | 0.00 | 60 | 1012.4 |
| 20260901025248 | 82 | 331 | 0.0 | 0.0 | 0.00 | 0.00 | 0.00 | 61 | 1012.4 |
| 20260901024738 | 82 | 343 | 0.0 | 0.0 | 0.00 | 0.00 | 0.00 | 61 | 1012.4 |
| 20260901024249 | 82 | 340 | 0.0 | 0.0 | 0.00 | 0.00 | 0.00 | 60 | 1012.5 |
| 20260901023742 | 82 | 341 | 0.0 | 0.0 | 0.00 | 0.00 | 0.00 | 60 | 1012.5 |
| 20260901023241 | 82 | 351 | 0.0 | 0.0 | 0.00 | 0.00 | 0.00 | 60 | 1012.5 |
| 20260901023145 | 82 | 353 | 0.0 | 0.0 | 0.00 | 0.00 | 0.00 | 60 | 1012.5 |
| 20260901022748 | 82 | 18 | 0.0 | 0.0 | 0.00 | 0.00 | 0.00 | 59 | 1012.5 |
| 20260901022239 | 82 | 354 | 0.0 | 0.0 | 0.00 | 0.00 | 0.00 | 59 | 1012.5 |
| 20260901021752 | 82 | 358 | 0.0 | 0.0 | 0.00 | 0.00 | 0.00 | 60 | 1012.5 |
| 20260901021243 | 82 | 58 | 0.0 | 0.0 | 0.00 | 0.00 | 0.00 | 59 | 1012.7 |
| 20260901020738 | 82 | 31 | 0.0 | 0.0 | 0.00 | 0.00 | 0.00 | 61 | 1012.7 |
| 20260901020255 | 81 | 32 | 0.0 | 0.0 | 0.00 | 0.00 | 0.00 | 62 | 1012.7 |
| 20260901015253 | 81 | 330 | 0.0 | 0.0 | 0.00 | 0.00 | 0.00 | 62 | 1013.0 |
| 20260901014747 | 81 | 357 | 0.0 | 0.0 | 0.00 | 0.00 | 0.00 | 61 | 1013.0 |
| 20260901013753 | 81 | 28 | 0.0 | 0.0 | 0.00 | 0.00 | 0.00 | 62 | 1013.2 |
| 20260901013251 | 81 | 31 | 0.0 | 0.0 | 0.00 | 0.00 | 0.00 | 62 | 1013.2 |
| 20260901013134 | 81 | 38 | 0.0 | 0.0 | 0.00 | 0.00 | 0.00 | 62 | 1013.2 |
| 20260901012736 | 81 | 358 | 0.0 | 0.0 | 0.00 | 0.00 | 0.00 | 62 | 1013.1 |
| 20260901011745 | 80 | 34 | 0.0 | 0.0 | 0.00 | 0.00 | 0.00 | 63 | 1013.1 |
| 20260901011254 | 80 | 14 | 0.0 | 0.0 | 0.00 | 0.00 | 0.00 | 64 | 1013.2 |
| 20260901010744 | 80 | 34 | 0.0 | 0.0 | 0.00 | 0.00 | 0.00 | 64 | 1013.2 |
| 20260901010245 | 79 | 336 | 0.0 | 0.0 | 0.00 | 0.00 | 0.00 | 65 | 1013.2 |
| 20260901010129 | 79 | 334 | 0.0 | 0.0 | 0.00 | 0.00 | 0.00 | 65 | 1013.2 |
| 20260901005751 | 79 | 336 | 0.0 | 0.0 | 0.00 | 0.00 | 0.00 | 66 | 1013.3 |
| 20260901005241 | 79 | 358 | 0.0 | 0.0 | 0.00 | 0.00 | 0.00 | 66 | 1013.3 |
| 20260901004736 | 79 | 24 | 0.0 | 0.0 | 0.00 | 0.00 | 0.00 | 66 | 1013.3 |
| 20260901004245 | 79 | 18 | 0.0 | 0.0 | 0.00 | 0.00 | 0.00 | 65 | 1013.2 |
| 20260901003735 | 79 | 7 | 0.0 | 0.0 | 0.00 | 0.00 | 0.00 | 65 | 1013.2 |
| 20260901003141 | 79 | 8 | 0.0 | 0.0 | 0.00 | 0.00 | 0.00 | 66 | 1013.2 |
| 20260901002743 | 79 | 8 | 0.0 | 0.0 | 0.00 | 0.00 | 0.00 | 66 | 1013.3 |
| 20260901002256 | 79 | 8 | 0.0 | 0.0 | 0.00 | 0.00 | 0.00 | 66 | 1013.3 |
| 20260901001743 | 78 | 8 | 0.0 | 0.0 | 0.00 | 0.00 | 0.00 | 67 | 1013.3 |
| 20260901001252 | 78 | 8 | 0.0 | 0.0 | 0.00 | 0.00 | 0.00 | 68 | 1013.3 |
| 20260901000750 | 77 | 7 | 0.0 | 0.0 | 0.00 | 0.00 | 0.00 | 69 | 1013.3 |
| 20260901000249 | 77 | 10 | 0.0 | 0.0 | 0.00 | 0.00 | 0.00 | 69 | 1013.3 |
| 20260901000133 | 77 | 10 | 0.0 | 0.0 | 0.00 | 0.00 | 0.00 | 69 | 1013.3 |
| 20260831235735 | 77 | 24 | 0.0 | 0.0 | 0.00 | 0.00 | 0.00 | 69 | 1013.2 |
| 20260831235244 | 77 | 24 | 0.0 | 0.0 | 0.00 | 0.00 | 0.00 | 69 | 1013.2 |
| 20260831234741 | 77 | 24 | 0.0 | 0.0 | 0.00 | 0.00 | 0.00 | 69 | 1013.2 |
| 20260831234253 | 77 | 354 | 0.0 | 0.0 | 0.00 | 0.00 | 0.00 | 69 | 1013.2 |
| 20260831233741 | 77 | 354 | 0.0 | 0.0 | 0.00 | 0.00 | 0.00 | 69 | 1013.2 |
| 20260831233240 | 77 | 353 | 0.0 | 0.0 | 0.00 | 0.00 | 0.00 | 70 | 1013.2 |
| 20260831233144 | 77 | 323 | 0.0 | 0.0 | 0.00 | 0.00 | 0.00 | 70 | 1013.2 |
| 20260831232239 | 76 | 355 | 0.0 | 0.0 | 0.00 | 0.00 | 0.00 | 70 | 1013.2 |
| 20260831231735 | 76 | 11 | 0.0 | 0.0 | 0.00 | 0.00 | 0.00 | 71 | 1013.2 |
| 20260831230746 | 76 | 12 | 0.0 | 0.0 | 0.00 | 0.00 | 0.00 | 71 | 1013.3 |
| 20260831230246 | 76 | 8 | 0.0 | 0.0 | 0.00 | 0.00 | 0.00 | 71 | 1013.3 |
| 20260831230130 | 76 | 77 | 0.0 | 0.0 | 0.00 | 0.00 | 0.00 | 71 | 1013.3 |
| 20260831225752 | 76 | 357 | 0.0 | 0.0 | 0.00 | 0.00 | 0.00 | 71 | 1013.2 |
| 20260831225242 | 76 | 355 | 0.0 | 0.0 | 0.00 | 0.00 | 0.00 | 72 | 1013.2 |
| 20260831224735 | 75 | 357 | 0.0 | 0.0 | 0.00 | 0.00 | 0.00 | 72 | 1013.2 |
| 20260831223744 | 75 | 12 | 0.0 | 0.0 | 0.00 | 0.00 | 0.00 | 73 | 1013.2 |
| 20260831223239 | 75 | 31 | 0.0 | 0.0 | 0.00 | 0.00 | 0.00 | 74 | 1013.2 |
| 20260831223126 | 75 | 29 | 0.0 | 0.0 | 0.00 | 0.00 | 0.00 | 74 | 1013.2 |
| 20260831222744 | 75 | 35 | 0.0 | 0.0 | 0.00 | 0.00 | 0.00 | 74 | 1013.2 |
| 20260831222234 | 74 | 36 | 0.0 | 0.0 | 0.00 | 0.00 | 0.00 | 74 | 1013.2 |
| 20260831221749 | 74 | 125 | 0.0 | 0.0 | 0.00 | 0.00 | 0.00 | 74 | 1013.2 |
| 20260831221239 | 74 | 24 | 0.0 | 0.0 | 0.00 | 0.00 | 0.00 | 75 | 1013.3 |
| 20260831220237 | 74 | 29 | 0.0 | 0.0 | 0.00 | 0.00 | 0.00 | 76 | 1013.3 |